,,,PA_Meas_PMT16A,,PR_Meas_QMR101_102,,RH_Meas_QMH101,,SR_Meas_QMS101,,TA_Meas_QMH101,,GenWind,,GenWind,
date,time,status,PA,status,PR,status,RH,status,SR,status,TA,status,DirAvg,status,SpdAvg,
2011-12-07, 00:00:04,VALID,1000.87,VALID,0.5,VALID,94.6149,VALID,0,VALID,22.7257,VALID,265,VALID,0,
2011-12-07, 00:01:04,VALID,1000.88,VALID,0,VALID,94.6226,VALID,0,VALID,22.7062,VALID,266,VALID,0,
2011-12-07, 00:02:04,VALID,1000.85,VALID,0.5,VALID,94.6378,VALID,0,VALID,22.6867,VALID,277,VALID,0,
2011-12-07, 00:03:04,VALID,1000.85,VALID,0.5,VALID,94.6302,VALID,0,VALID,22.6655,VALID,279,VALID,0.265625,
2011-12-07, 00:04:04,VALID,1000.83,VALID,0.5,VALID,94.6531,VALID,0,VALID,22.6867,VALID,262,VALID,0.909766,
2011-12-07, 00:05:04,VALID,1000.85,VALID,0,VALID,94.6302,VALID,0,VALID,22.6672,VALID,321,VALID,0.980469,
2011-12-07, 00:06:04,VALID,1000.87,VALID,0.5,VALID,94.6607,VALID,0,VALID,22.6655,VALID,304,VALID,1.02656,
2011-12-07, 00:07:04,VALID,1000.8,VALID,0,VALID,94.6607,VALID,0,VALID,22.6672,VALID,296,VALID,0.512109,
2011-12-07, 00:08:04,VALID,1000.79,VALID,0.5,VALID,94.6531,VALID,0,VALID,22.6672,VALID,299,VALID,0.0910156,
2011-12-07, 00:09:04,VALID,1000.78,VALID,0,VALID,94.6302,VALID,0,VALID,22.6672,VALID,259,VALID,0.0914062,
2011-12-07, 00:10:04,VALID,1000.77,VALID,0.5,VALID,94.6454,VALID,0,VALID,22.6672,VALID,292,VALID,0.858984,
2011-12-07, 00:11:04,VALID,1000.81,VALID,0,VALID,94.6378,VALID,0,VALID,22.6672,VALID,287,VALID,0.542578,
2011-12-07, 00:12:04,VALID,1000.77,VALID,0.5,VALID,94.6302,VALID,0,VALID,22.6672,VALID,298,VALID,0.208984,
2011-12-07, 00:13:04,VALID,1000.76,VALID,0.5,VALID,94.6226,VALID,0,VALID,22.6672,VALID,298,VALID,0,
2011-12-07, 00:14:04,VALID,1000.76,VALID,0.5,VALID,94.6454,VALID,0,VALID,22.6867,VALID,298,VALID,0,
2011-12-07, 00:15:04,VALID,1000.69,VALID,0,VALID,94.6378,VALID,0,VALID,22.6655,VALID,298,VALID,0,
2011-12-07, 00:16:04,VALID,1000.69,VALID,0.5,VALID,94.6226,VALID,0,VALID,22.6867,VALID,298,VALID,0,
2011-12-07, 00:17:04,VALID,1000.68,VALID,0,VALID,94.6378,VALID,0,VALID,22.6867,VALID,298,VALID,0,
2011-12-07, 00:18:04,VALID,1000.62,VALID,0.5,VALID,94.6149,VALID,0,VALID,22.6867,VALID,187,VALID,0.747656,
2011-12-07, 00:19:04,VALID,1000.64,VALID,0.5,VALID,94.6149,VALID,0,VALID,22.6867,VALID,174,VALID,0.414844,
2011-12-07, 00:20:04,VALID,1000.61,VALID,0,VALID,94.6149,VALID,0,VALID,22.6867,VALID,174,VALID,0.617188,
2011-12-07, 00:21:04,VALID,1000.57,VALID,0.5,VALID,94.6226,VALID,0,VALID,22.7062,VALID,174,VALID,0.433984,
2011-12-07, 00:22:04,VALID,1000.58,VALID,0,VALID,94.6073,VALID,0,VALID,22.7062,VALID,174,VALID,0.287891,
2011-12-07, 00:23:04,VALID,1000.6,VALID,0.5,VALID,94.6226,VALID,0,VALID,22.7062,VALID,172,VALID,0.658594,
2011-12-07, 00:24:04,VALID,1000.61,VALID,0,VALID,94.6226,VALID,0,VALID,22.6672,VALID,125,VALID,0.939453,
2011-12-07, 00:25:04,VALID,1000.58,VALID,0.5,VALID,94.6607,VALID,0,VALID,22.6282,VALID,146,VALID,0.174609,
2011-12-07, 00:26:04,VALID,1000.57,VALID,0,VALID,94.6302,VALID,0,VALID,22.6477,VALID,146,VALID,0,
2011-12-07, 00:27:04,VALID,1000.55,VALID,0.5,VALID,94.6454,VALID,0,VALID,22.6672,VALID,146,VALID,0.673047,
2011-12-07, 00:28:04,VALID,1000.58,VALID,0,VALID,94.6302,VALID,0,VALID,22.6672,VALID,146,VALID,1.43906,
2011-12-07, 00:29:04,VALID,1000.56,VALID,0.5,VALID,94.6302,VALID,0,VALID,22.6477,VALID,160,VALID,0.5,
2011-12-07, 00:30:04,VALID,1000.58,VALID,0,VALID,94.6378,VALID,0,VALID,22.6477,VALID,160,VALID,0.170703,
2011-12-07, 00:31:04,VALID,1000.58,VALID,0,VALID,94.6454,VALID,0,VALID,22.5892,VALID,160,VALID,0.228516,
2011-12-07, 00:32:04,VALID,1000.56,VALID,0.5,VALID,94.6531,VALID,0,VALID,22.5696,VALID,160,VALID,0.235938,
2011-12-07, 00:33:04,VALID,1000.53,VALID,0,VALID,94.6683,VALID,0,VALID,22.5501,VALID,160,VALID,0.251953,
2011-12-07, 00:34:04,VALID,1000.56,VALID,0,VALID,94.6607,VALID,0,VALID,22.5306,VALID,190,VALID,0.784766,
2011-12-07, 00:35:04,VALID,1000.52,VALID,0.5,VALID,94.6683,VALID,0,VALID,22.4916,VALID,211,VALID,1.51445,
2011-12-07, 00:36:04,VALID,1000.49,VALID,0,VALID,94.6912,VALID,0,VALID,22.4526,VALID,211,VALID,0.969922,
2011-12-07, 00:37:04,VALID,1000.5,VALID,0.5,VALID,94.676,VALID,0,VALID,22.4526,VALID,195,VALID,0.898047,
2011-12-07, 00:38:04,VALID,1000.47,VALID,0,VALID,94.6607,VALID,0,VALID,22.4721,VALID,200,VALID,0.894531,
2011-12-07, 00:39:04,VALID,1000.48,VALID,0,VALID,94.6531,VALID,0,VALID,22.4509,VALID,223,VALID,0.728906,
2011-12-07, 00:40:04,VALID,1000.44,VALID,0.5,VALID,94.6607,VALID,0,VALID,22.4721,VALID,223,VALID,0.639844,
2011-12-07, 00:41:04,VALID,1000.44,VALID,0,VALID,94.6607,VALID,0,VALID,22.4526,VALID,203,VALID,0.409766,
2011-12-07, 00:42:04,VALID,1000.36,VALID,0.5,VALID,94.676,VALID,0,VALID,22.4526,VALID,197,VALID,0.884766,
2011-12-07, 00:43:04,VALID,1000.36,VALID,0,VALID,94.676,VALID,0,VALID,22.4704,VALID,179,VALID,1.06797,
2011-12-07, 00:44:04,VALID,1000.33,VALID,0,VALID,94.6378,VALID,0,VALID,22.4916,VALID,180,VALID,1.07969,
2011-12-07, 00:45:04,VALID,1000.32,VALID,0.5,VALID,94.6378,VALID,0,VALID,22.5111,VALID,176,VALID,1.60977,
2011-12-07, 00:46:04,VALID,1000.3,VALID,0,VALID,94.6302,VALID,0,VALID,22.5306,VALID,173,VALID,1.61172,
2011-12-07, 00:47:04,VALID,1000.3,VALID,0,VALID,94.6378,VALID,0,VALID,22.5306,VALID,192,VALID,1.67734,
2011-12-07, 00:48:04,VALID,1000.26,VALID,0,VALID,94.6607,VALID,0,VALID,22.4721,VALID,180,VALID,1.37344,
2011-12-07, 00:49:04,VALID,1000.23,VALID,0.5,VALID,94.6302,VALID,0,VALID,22.5111,VALID,161,VALID,1.50117,
2011-12-07, 00:50:04,VALID,1000.2,VALID,0,VALID,94.6454,VALID,0,VALID,22.4916,VALID,155,VALID,1.47773,
2011-12-07, 00:51:04,VALID,1000.17,VALID,0,VALID,94.6454,VALID,0,VALID,22.4916,VALID,166,VALID,1.3082,
2011-12-07, 00:52:04,VALID,1000.18,VALID,0.5,VALID,94.6378,VALID,0,VALID,22.5111,VALID,164,VALID,1.57109,
2011-12-07, 00:53:04,VALID,1000.13,VALID,0,VALID,94.6531,VALID,0,VALID,22.5111,VALID,172,VALID,1.5793,
2011-12-07, 00:54:04,VALID,1000.15,VALID,0.5,VALID,94.6607,VALID,0,VALID,22.5306,VALID,174,VALID,1.57148,
2011-12-07, 00:55:04,VALID,1000.11,VALID,0,VALID,94.6302,VALID,0,VALID,22.5306,VALID,182,VALID,1.79688,
2011-12-07, 00:56:04,VALID,1000.11,VALID,0,VALID,94.6454,VALID,0,VALID,22.5111,VALID,193,VALID,1.84648,
2011-12-07, 00:57:04,VALID,1000.11,VALID,0.5,VALID,94.6378,VALID,0,VALID,22.4721,VALID,194,VALID,1.77305,
2011-12-07, 00:58:04,VALID,1000.1,VALID,0,VALID,94.6836,VALID,0,VALID,22.4331,VALID,198,VALID,1.83906,
2011-12-07, 00:59:04,VALID,1000.1,VALID,0,VALID,94.6683,VALID,0,VALID,22.4331,VALID,192,VALID,1.86172,
2011-12-07, 01:00:04,VALID,1000.05,VALID,0.5,VALID,94.6683,VALID,0,VALID,22.4526,VALID,181,VALID,1.70586,
2011-12-07, 01:01:04,VALID,1000.04,VALID,0,VALID,94.676,VALID,0,VALID,22.4526,VALID,183,VALID,1.55195,
2011-12-07, 01:02:04,VALID,1000,VALID,0,VALID,94.6531,VALID,0,VALID,22.4721,VALID,186,VALID,1.11797,
2011-12-07, 01:03:04,VALID,999.967,VALID,0.5,VALID,94.6378,VALID,0,VALID,22.4916,VALID,183,VALID,1.33398,
2011-12-07, 01:04:04,VALID,999.964,VALID,0,VALID,94.6531,VALID,0,VALID,22.4526,VALID,186,VALID,1.3832,
2011-12-07, 01:05:04,VALID,999.962,VALID,0,VALID,94.6607,VALID,0,VALID,22.4526,VALID,188,VALID,1.42969,
2011-12-07, 01:06:04,VALID,999.955,VALID,0.5,VALID,94.6683,VALID,0,VALID,22.4526,VALID,196,VALID,1.14219,
2011-12-07, 01:07:04,VALID,999.919,VALID,0,VALID,94.6378,VALID,0,VALID,22.4721,VALID,201,VALID,1.25859,
2011-12-07, 01:08:04,VALID,999.861,VALID,0,VALID,94.6531,VALID,0,VALID,22.4933,VALID,173,VALID,1.54102,
2011-12-07, 01:09:04,VALID,999.819,VALID,0.5,VALID,94.6683,VALID,0,VALID,22.4721,VALID,183,VALID,1.64453,
2011-12-07, 01:10:04,VALID,999.769,VALID,0,VALID,94.6607,VALID,0,VALID,22.4526,VALID,181,VALID,1.53086,
2011-12-07, 01:11:04,VALID,999.717,VALID,0,VALID,94.6226,VALID,0,VALID,22.4721,VALID,174,VALID,1.54141,
2011-12-07, 01:12:04,VALID,999.714,VALID,0,VALID,94.6454,VALID,0,VALID,22.5111,VALID,175,VALID,1.49648,
2011-12-07, 01:13:04,VALID,999.661,VALID,0.5,VALID,94.6454,VALID,0,VALID,22.4916,VALID,168,VALID,1.39844,
2011-12-07, 01:14:04,VALID,999.676,VALID,0,VALID,94.6378,VALID,0,VALID,22.4899,VALID,172,VALID,1.39688,
2011-12-07, 01:15:04,VALID,999.632,VALID,0,VALID,94.6454,VALID,0,VALID,22.4899,VALID,172,VALID,1.30547,
2011-12-07, 01:16:04,VALID,999.643,VALID,0.5,VALID,94.6226,VALID,0,VALID,22.5094,VALID,188,VALID,1.57813,
2011-12-07, 01:17:04,VALID,999.6,VALID,0,VALID,94.6607,VALID,0.104696,VALID,22.4704,VALID,193,VALID,1.33477,
2011-12-07, 01:18:04,VALID,999.579,VALID,0.5,VALID,94.6531,VALID,0,VALID,22.4314,VALID,189,VALID,1.10938,
2011-12-07, 01:19:04,VALID,999.602,VALID,0,VALID,94.6607,VALID,0.104696,VALID,22.4526,VALID,194,VALID,1.32422,
2011-12-07, 01:20:04,VALID,999.541,VALID,0,VALID,94.6607,VALID,0,VALID,22.4331,VALID,189,VALID,1.2707,
2011-12-07, 01:21:04,VALID,999.484,VALID,0,VALID,94.6683,VALID,0,VALID,22.4526,VALID,177,VALID,1.13242,
2011-12-07, 01:22:04,VALID,999.468,VALID,0.5,VALID,94.6607,VALID,0,VALID,22.4314,VALID,157,VALID,1.04961,
2011-12-07, 01:23:04,VALID,999.469,VALID,0,VALID,94.6531,VALID,0,VALID,22.4314,VALID,149,VALID,0.85,
2011-12-07, 01:24:04,VALID,999.457,VALID,0,VALID,94.6683,VALID,0,VALID,22.4331,VALID,147,VALID,0.616797,
2011-12-07, 01:25:04,VALID,999.428,VALID,0,VALID,94.6607,VALID,0,VALID,22.4136,VALID,151,VALID,0.903516,
2011-12-07, 01:26:04,VALID,999.397,VALID,0,VALID,94.6683,VALID,0,VALID,22.4136,VALID,152,VALID,0.732422,
2011-12-07, 01:27:04,VALID,999.384,VALID,0,VALID,94.676,VALID,0,VALID,22.4136,VALID,152,VALID,0.259375,
2011-12-07, 01:28:04,VALID,999.341,VALID,0,VALID,94.6531,VALID,0,VALID,22.4136,VALID,152,VALID,0.326562,
2011-12-07, 01:29:04,VALID,999.308,VALID,0,VALID,94.6531,VALID,0,VALID,22.3924,VALID,152,VALID,0.616797,
2011-12-07, 01:30:04,VALID,999.299,VALID,0,VALID,94.6683,VALID,0.104696,VALID,22.3924,VALID,152,VALID,0.4875,
2011-12-07, 01:31:04,VALID,999.25,VALID,0,VALID,94.6454,VALID,0,VALID,22.3941,VALID,138,VALID,0.838281,
2011-12-07, 01:32:04,VALID,999.216,VALID,0,VALID,94.6531,VALID,0,VALID,22.3924,VALID,138,VALID,0.675,
2011-12-07, 01:33:04,VALID,999.228,VALID,0.5,VALID,94.6607,VALID,0,VALID,22.3941,VALID,138,VALID,0.855859,
2011-12-07, 01:34:04,VALID,999.24,VALID,0,VALID,94.6531,VALID,0,VALID,22.3924,VALID,147,VALID,0.714844,
2011-12-07, 01:35:04,VALID,999.218,VALID,0,VALID,94.6607,VALID,0,VALID,22.4136,VALID,152,VALID,0.739453,
2011-12-07, 01:36:04,VALID,999.191,VALID,0,VALID,94.6531,VALID,0,VALID,22.4136,VALID,152,VALID,0.851953,
2011-12-07, 01:37:04,VALID,999.147,VALID,0,VALID,94.6378,VALID,0,VALID,22.4331,VALID,152,VALID,0.390234,
2011-12-07, 01:38:04,VALID,999.123,VALID,0,VALID,94.6531,VALID,0.104696,VALID,22.4119,VALID,152,VALID,0.725,
2011-12-07, 01:39:04,VALID,999.1,VALID,0,VALID,94.6531,VALID,0,VALID,22.4526,VALID,152,VALID,0.427344,
2011-12-07, 01:40:04,VALID,999.099,VALID,0,VALID,94.6226,VALID,0,VALID,22.4119,VALID,183,VALID,0.689844,
2011-12-07, 01:41:04,VALID,999.079,VALID,0,VALID,94.6378,VALID,0,VALID,22.4119,VALID,175,VALID,0.818359,
2011-12-07, 01:42:04,VALID,999.042,VALID,0,VALID,94.6302,VALID,0,VALID,22.4721,VALID,171,VALID,1.06875,
2011-12-07, 01:43:04,VALID,998.997,VALID,0,VALID,94.6302,VALID,0,VALID,22.4721,VALID,151,VALID,0.632031,
2011-12-07, 01:44:04,VALID,998.952,VALID,0,VALID,94.6302,VALID,0,VALID,22.5111,VALID,151,VALID,0.461328,
2011-12-07, 01:45:04,VALID,998.947,VALID,0,VALID,94.6378,VALID,0,VALID,22.4899,VALID,151,VALID,0.430078,
2011-12-07, 01:46:04,VALID,998.988,VALID,0,VALID,94.6378,VALID,0,VALID,22.4899,VALID,148,VALID,0.594141,
2011-12-07, 01:47:04,VALID,998.979,VALID,0,VALID,94.6226,VALID,0,VALID,22.4916,VALID,175,VALID,0.864844,
2011-12-07, 01:48:04,VALID,998.946,VALID,0,VALID,94.6302,VALID,0,VALID,22.4916,VALID,170,VALID,0.590234,
2011-12-07, 01:49:04,VALID,998.932,VALID,0,VALID,94.6378,VALID,0,VALID,22.4916,VALID,170,VALID,0.23125,
2011-12-07, 01:50:04,VALID,998.907,VALID,0,VALID,94.6302,VALID,0,VALID,22.4704,VALID,164,VALID,0.942578,
2011-12-07, 01:51:04,VALID,998.862,VALID,0,VALID,94.6378,VALID,0,VALID,22.5111,VALID,176,VALID,1.04805,
2011-12-07, 01:52:04,VALID,998.888,VALID,0,VALID,94.6454,VALID,0,VALID,22.4509,VALID,179,VALID,1.03008,
2011-12-07, 01:53:04,VALID,998.832,VALID,0,VALID,94.6607,VALID,0.104696,VALID,22.4509,VALID,211,VALID,1.00586,
2011-12-07, 01:54:04,VALID,998.85,VALID,0.5,VALID,94.6454,VALID,0,VALID,22.4704,VALID,214,VALID,0.593359,
2011-12-07, 01:55:04,VALID,998.809,VALID,0,VALID,94.6378,VALID,0,VALID,22.4916,VALID,189,VALID,0.875781,
2011-12-07, 01:56:04,VALID,998.825,VALID,0,VALID,94.6378,VALID,0,VALID,22.4721,VALID,213,VALID,1.16367,
2011-12-07, 01:57:04,VALID,998.846,VALID,0,VALID,94.6454,VALID,0,VALID,22.4916,VALID,212,VALID,0.844531,
2011-12-07, 01:58:04,VALID,998.836,VALID,0,VALID,94.6607,VALID,0,VALID,22.4526,VALID,188,VALID,1.03867,
2011-12-07, 01:59:04,VALID,998.844,VALID,0,VALID,94.6378,VALID,0,VALID,22.4526,VALID,188,VALID,0.958203,
2011-12-07, 02:00:04,VALID,998.835,VALID,0,VALID,94.6531,VALID,0,VALID,22.4314,VALID,188,VALID,0.572266,
2011-12-07, 02:01:04,VALID,998.833,VALID,0,VALID,94.6531,VALID,0.104696,VALID,22.4526,VALID,180,VALID,0.995703,
2011-12-07, 02:02:04,VALID,998.829,VALID,0,VALID,94.6683,VALID,0,VALID,22.4331,VALID,180,VALID,0.710156,
2011-12-07, 02:03:04,VALID,998.846,VALID,0,VALID,94.6683,VALID,0,VALID,22.4331,VALID,180,VALID,0.502734,
2011-12-07, 02:04:04,VALID,998.833,VALID,0.5,VALID,94.6378,VALID,0,VALID,22.4314,VALID,180,VALID,0.507031,
2011-12-07, 02:05:04,VALID,998.835,VALID,0,VALID,94.6531,VALID,0,VALID,22.4526,VALID,180,VALID,0.714844,
2011-12-07, 02:06:04,VALID,998.83,VALID,0,VALID,94.6683,VALID,0,VALID,22.4526,VALID,183,VALID,0.900781,
2011-12-07, 02:07:04,VALID,998.827,VALID,0,VALID,94.6607,VALID,0,VALID,22.3941,VALID,205,VALID,0.896094,
2011-12-07, 02:08:04,VALID,998.807,VALID,0,VALID,94.6683,VALID,0,VALID,22.3941,VALID,205,VALID,0.378906,
2011-12-07, 02:09:04,VALID,998.778,VALID,0,VALID,94.6607,VALID,0,VALID,22.3746,VALID,205,VALID,0.216016,
2011-12-07, 02:10:04,VALID,998.744,VALID,0,VALID,94.676,VALID,0,VALID,22.3941,VALID,166,VALID,0.771094,
2011-12-07, 02:11:04,VALID,998.693,VALID,0,VALID,94.6607,VALID,0,VALID,22.3746,VALID,172,VALID,0.318359,
2011-12-07, 02:12:04,VALID,998.752,VALID,0,VALID,94.6683,VALID,0,VALID,22.3534,VALID,172,VALID,0.06875,
2011-12-07, 02:13:04,VALID,998.724,VALID,0,VALID,94.676,VALID,0,VALID,22.3534,VALID,172,VALID,0,
2011-12-07, 02:14:04,VALID,998.715,VALID,0,VALID,94.6531,VALID,0,VALID,22.3746,VALID,172,VALID,0,
2011-12-07, 02:15:04,VALID,998.684,VALID,0,VALID,94.6607,VALID,0,VALID,22.3746,VALID,172,VALID,0,
2011-12-07, 02:16:04,VALID,998.653,VALID,0,VALID,94.6607,VALID,0,VALID,22.3941,VALID,172,VALID,0,
2011-12-07, 02:17:04,VALID,998.645,VALID,0,VALID,94.6454,VALID,0,VALID,22.3729,VALID,172,VALID,0,
2011-12-07, 02:18:04,VALID,998.644,VALID,0,VALID,94.6607,VALID,0,VALID,22.3551,VALID,172,VALID,0.589844,
2011-12-07, 02:19:04,VALID,998.618,VALID,0,VALID,94.6683,VALID,0,VALID,22.3551,VALID,172,VALID,0.262109,
2011-12-07, 02:20:04,VALID,998.623,VALID,0,VALID,94.676,VALID,0,VALID,22.3551,VALID,172,VALID,0,
2011-12-07, 02:21:04,VALID,998.618,VALID,0,VALID,94.6531,VALID,0,VALID,22.3551,VALID,172,VALID,0,
2011-12-07, 02:22:04,VALID,998.626,VALID,0,VALID,94.676,VALID,0,VALID,22.3339,VALID,172,VALID,0,
2011-12-07, 02:23:04,VALID,998.623,VALID,0,VALID,94.6683,VALID,0,VALID,22.3746,VALID,172,VALID,0,
2011-12-07, 02:24:04,VALID,998.619,VALID,0,VALID,94.6378,VALID,0,VALID,22.3534,VALID,135,VALID,0,
2011-12-07, 02:25:04,VALID,998.594,VALID,0,VALID,94.6454,VALID,0,VALID,22.3534,VALID,106,VALID,0.835938,
2011-12-07, 02:26:04,VALID,998.609,VALID,0,VALID,94.6531,VALID,0,VALID,22.3746,VALID,106,VALID,0.470703,
2011-12-07, 02:27:04,VALID,998.613,VALID,0,VALID,94.6531,VALID,0,VALID,22.3941,VALID,106,VALID,0,
2011-12-07, 02:28:04,VALID,998.606,VALID,0,VALID,94.6607,VALID,0,VALID,22.3729,VALID,106,VALID,0,
2011-12-07, 02:29:04,VALID,998.597,VALID,0,VALID,94.6378,VALID,0,VALID,22.3941,VALID,106,VALID,0,
2011-12-07, 02:30:04,VALID,998.598,VALID,0,VALID,94.6454,VALID,0,VALID,22.3941,VALID,106,VALID,0,
2011-12-07, 02:31:04,VALID,998.605,VALID,0,VALID,94.6683,VALID,0,VALID,22.3729,VALID,106,VALID,0,
2011-12-07, 02:32:04,VALID,998.609,VALID,0,VALID,94.6912,VALID,0.104696,VALID,22.3746,VALID,106,VALID,0,
2011-12-07, 02:33:04,VALID,998.62,VALID,0,VALID,94.6683,VALID,0,VALID,22.3941,VALID,106,VALID,0,
2011-12-07, 02:34:04,VALID,998.627,VALID,0.5,VALID,94.6454,VALID,0,VALID,22.3924,VALID,106,VALID,0.551562,
2011-12-07, 02:35:04,VALID,998.622,VALID,0,VALID,94.6531,VALID,0,VALID,22.3924,VALID,58,VALID,0.601172,
2011-12-07, 02:36:04,VALID,998.616,VALID,0,VALID,94.6454,VALID,0,VALID,22.4136,VALID,58,VALID,0.819922,
2011-12-07, 02:37:04,VALID,998.64,VALID,0,VALID,94.6531,VALID,0,VALID,22.4136,VALID,58,VALID,0.741406,
2011-12-07, 02:38:04,VALID,998.665,VALID,0,VALID,94.6378,VALID,0,VALID,22.3924,VALID,58,VALID,0.679297,
2011-12-07, 02:39:04,VALID,998.667,VALID,0,VALID,94.6226,VALID,0,VALID,22.3924,VALID,58,VALID,0.721875,
2011-12-07, 02:40:04,VALID,998.697,VALID,0,VALID,94.6302,VALID,0,VALID,22.4331,VALID,58,VALID,0.772266,
2011-12-07, 02:41:04,VALID,998.732,VALID,0,VALID,94.6378,VALID,0,VALID,22.4331,VALID,58,VALID,0.537109,
2011-12-07, 02:42:04,VALID,998.721,VALID,0,VALID,94.6454,VALID,0,VALID,22.4136,VALID,58,VALID,0.355859,
2011-12-07, 02:43:04,VALID,998.721,VALID,0,VALID,94.6454,VALID,0,VALID,22.4331,VALID,58,VALID,0.44375,
2011-12-07, 02:44:04,VALID,998.741,VALID,0,VALID,94.6531,VALID,0,VALID,22.4331,VALID,58,VALID,0.607422,
2011-12-07, 02:45:04,VALID,998.739,VALID,0,VALID,94.6378,VALID,0,VALID,22.4331,VALID,58,VALID,0.450391,
2011-12-07, 02:46:04,VALID,998.746,VALID,0,VALID,94.6454,VALID,0,VALID,22.4526,VALID,58,VALID,0.617969,
2011-12-07, 02:47:04,VALID,998.745,VALID,0,VALID,94.6531,VALID,0,VALID,22.4526,VALID,58,VALID,0.596094,
2011-12-07, 02:48:04,VALID,998.752,VALID,0,VALID,94.6683,VALID,0,VALID,22.4119,VALID,58,VALID,0.727344,
2011-12-07, 02:49:04,VALID,998.746,VALID,0,VALID,94.6531,VALID,0,VALID,22.4331,VALID,58,VALID,0.827734,
2011-12-07, 02:50:04,VALID,998.739,VALID,0,VALID,94.6302,VALID,0,VALID,22.4509,VALID,58,VALID,0.454688,
2011-12-07, 02:51:04,VALID,998.75,VALID,0,VALID,94.6531,VALID,0,VALID,22.4509,VALID,58,VALID,0.518359,
2011-12-07, 02:52:04,VALID,998.752,VALID,0,VALID,94.6149,VALID,0.104696,VALID,22.4704,VALID,58,VALID,0.541797,
2011-12-07, 02:53:04,VALID,998.736,VALID,0,VALID,94.6226,VALID,0,VALID,22.4916,VALID,58,VALID,0,
2011-12-07, 02:54:04,VALID,998.748,VALID,0,VALID,94.6378,VALID,0,VALID,22.4721,VALID,58,VALID,0,
2011-12-07, 02:55:04,VALID,998.739,VALID,0,VALID,94.6302,VALID,0,VALID,22.5128,VALID,58,VALID,0,
2011-12-07, 02:56:04,VALID,998.743,VALID,0,VALID,94.6378,VALID,0,VALID,22.4721,VALID,58,VALID,0,
2011-12-07, 02:57:04,VALID,998.729,VALID,0,VALID,94.6226,VALID,0,VALID,22.4933,VALID,58,VALID,0,
2011-12-07, 02:58:04,VALID,998.763,VALID,0,VALID,94.6454,VALID,0,VALID,22.4721,VALID,94,VALID,0,
2011-12-07, 02:59:04,VALID,998.734,VALID,0,VALID,94.6302,VALID,0,VALID,22.4916,VALID,94,VALID,0,
2011-12-07, 03:00:04,VALID,998.766,VALID,0,VALID,94.6378,VALID,0,VALID,22.4916,VALID,98,VALID,0.560156,
2011-12-07, 03:01:04,VALID,998.782,VALID,0,VALID,94.6302,VALID,0,VALID,22.4916,VALID,98,VALID,0.107813,
2011-12-07, 03:02:04,VALID,998.805,VALID,0,VALID,94.6226,VALID,0,VALID,22.5323,VALID,98,VALID,0.0121094,
2011-12-07, 03:03:04,VALID,998.768,VALID,0,VALID,94.6302,VALID,0,VALID,22.5323,VALID,98,VALID,0.270312,
2011-12-07, 03:04:04,VALID,998.741,VALID,0,VALID,94.6302,VALID,0,VALID,22.5111,VALID,98,VALID,0.071875,
2011-12-07, 03:05:04,VALID,998.713,VALID,0,VALID,94.6302,VALID,0,VALID,22.5519,VALID,98,VALID,0,
2011-12-07, 03:06:04,VALID,998.711,VALID,0,VALID,94.6149,VALID,0,VALID,22.5519,VALID,98,VALID,0,
2011-12-07, 03:07:04,VALID,998.693,VALID,0,VALID,94.6149,VALID,0,VALID,22.5519,VALID,98,VALID,0,
2011-12-07, 03:08:04,VALID,998.66,VALID,0,VALID,94.6073,VALID,0,VALID,22.5306,VALID,98,VALID,0,
2011-12-07, 03:09:04,VALID,998.647,VALID,0,VALID,94.6149,VALID,0,VALID,22.5484,VALID,98,VALID,0,
2011-12-07, 03:10:04,VALID,998.626,VALID,0,VALID,94.6073,VALID,0,VALID,22.5501,VALID,98,VALID,0,
2011-12-07, 03:11:04,VALID,998.644,VALID,0,VALID,94.6226,VALID,0,VALID,22.5289,VALID,98,VALID,0,
2011-12-07, 03:12:04,VALID,998.607,VALID,0,VALID,94.6073,VALID,0,VALID,22.5484,VALID,102,VALID,0,
2011-12-07, 03:13:04,VALID,998.598,VALID,0,VALID,94.6226,VALID,0,VALID,22.5696,VALID,180,VALID,0,
2011-12-07, 03:14:04,VALID,998.579,VALID,0,VALID,94.6073,VALID,0,VALID,22.5696,VALID,180,VALID,0,
2011-12-07, 03:15:04,VALID,998.609,VALID,0,VALID,94.6226,VALID,0.104696,VALID,22.5679,VALID,180,VALID,0,
2011-12-07, 03:16:04,VALID,998.61,VALID,0,VALID,94.6073,VALID,0,VALID,22.5679,VALID,244,VALID,0.876172,
2011-12-07, 03:17:04,VALID,998.593,VALID,0,VALID,94.6073,VALID,0.104696,VALID,22.5874,VALID,235,VALID,1.19922,
2011-12-07, 03:18:04,VALID,998.594,VALID,0,VALID,94.6149,VALID,0,VALID,22.6087,VALID,192,VALID,1.38359,
2011-12-07, 03:19:04,VALID,998.581,VALID,0,VALID,94.6073,VALID,0,VALID,22.6282,VALID,188,VALID,0.733594,
2011-12-07, 03:20:04,VALID,998.6,VALID,0,VALID,94.6073,VALID,0.104696,VALID,22.6477,VALID,179,VALID,0.752344,
2011-12-07, 03:21:04,VALID,998.584,VALID,0,VALID,94.592,VALID,0,VALID,22.6069,VALID,169,VALID,0.436328,
2011-12-07, 03:22:04,VALID,998.602,VALID,0,VALID,94.5997,VALID,0,VALID,22.6282,VALID,169,VALID,0.0914062,
2011-12-07, 03:23:04,VALID,998.58,VALID,0,VALID,94.6149,VALID,0,VALID,22.6264,VALID,169,VALID,0,
2011-12-07, 03:24:04,VALID,998.579,VALID,0,VALID,94.6073,VALID,0,VALID,22.6264,VALID,169,VALID,0,
2011-12-07, 03:25:04,VALID,998.557,VALID,0,VALID,94.5997,VALID,0,VALID,22.6477,VALID,169,VALID,0,
2011-12-07, 03:26:04,VALID,998.592,VALID,0,VALID,94.592,VALID,0,VALID,22.6264,VALID,169,VALID,0,
2011-12-07, 03:27:04,VALID,998.586,VALID,0,VALID,94.6226,VALID,0,VALID,22.6477,VALID,169,VALID,0,
2011-12-07, 03:28:04,VALID,998.64,VALID,0,VALID,94.6073,VALID,0,VALID,22.6282,VALID,169,VALID,0,
2011-12-07, 03:29:05,VALID,998.618,VALID,0,VALID,94.592,VALID,0.104696,VALID,22.6264,VALID,169,VALID,0,
2011-12-07, 03:30:05,VALID,998.627,VALID,0,VALID,94.592,VALID,0,VALID,22.6264,VALID,129,VALID,0.608984,
2011-12-07, 03:31:05,VALID,998.656,VALID,0,VALID,94.6149,VALID,0,VALID,22.6477,VALID,123,VALID,0.629687,
2011-12-07, 03:32:05,VALID,998.668,VALID,0,VALID,94.5844,VALID,0,VALID,22.6477,VALID,108,VALID,0.541797,
2011-12-07, 03:33:05,VALID,998.686,VALID,0,VALID,94.6149,VALID,0,VALID,22.646,VALID,101,VALID,0.737109,
2011-12-07, 03:34:05,VALID,998.72,VALID,0,VALID,94.5844,VALID,0,VALID,22.6867,VALID,102,VALID,0.412109,
2011-12-07, 03:35:05,VALID,998.711,VALID,0,VALID,94.5844,VALID,0,VALID,22.6867,VALID,101,VALID,0.447656,
2011-12-07, 03:36:05,VALID,998.693,VALID,0,VALID,94.6073,VALID,0,VALID,22.646,VALID,90,VALID,0.5625,
2011-12-07, 03:37:05,VALID,998.708,VALID,0,VALID,94.5997,VALID,0,VALID,22.6867,VALID,92,VALID,0.6625,
2011-12-07, 03:38:05,VALID,998.682,VALID,0,VALID,94.5997,VALID,0,VALID,22.6672,VALID,97,VALID,0.796094,
2011-12-07, 03:39:05,VALID,998.697,VALID,0,VALID,94.592,VALID,0,VALID,22.646,VALID,97,VALID,0.463281,
2011-12-07, 03:40:05,VALID,998.703,VALID,0,VALID,94.592,VALID,0,VALID,22.646,VALID,97,VALID,0,
2011-12-07, 03:41:05,VALID,998.696,VALID,0,VALID,94.592,VALID,0,VALID,22.6867,VALID,97,VALID,0.0183594,
2011-12-07, 03:42:05,VALID,998.693,VALID,0,VALID,94.6073,VALID,0,VALID,22.646,VALID,97,VALID,0,
2011-12-07, 03:43:05,VALID,998.703,VALID,0,VALID,94.5844,VALID,0,VALID,22.646,VALID,97,VALID,0,
2011-12-07, 03:44:05,VALID,998.697,VALID,0,VALID,94.6073,VALID,0,VALID,22.6672,VALID,97,VALID,0,
2011-12-07, 03:45:05,VALID,998.697,VALID,0,VALID,94.5997,VALID,0,VALID,22.646,VALID,97,VALID,0,
2011-12-07, 03:46:05,VALID,998.707,VALID,0,VALID,94.6149,VALID,0,VALID,22.6672,VALID,97,VALID,0,
2011-12-07, 03:47:05,VALID,998.737,VALID,0,VALID,94.5997,VALID,0,VALID,22.6672,VALID,97,VALID,0,